Location: Unspecified
(0.0000°N, 0.0000°E)
Time: 06:30:28
(UTC+00:00)

Transit 5B 6 Rocket - Visible Passes

Search period start: 17 September 2024 00:00
Search period end: 27 September 2024 00:00
Orbit: 1021 x 1104 km, 89.9° (Epoch: 16 September)

Date Brightness Start Highest point End Pass type
(mag) Time Alt. Az. Time Alt. Az. Time Alt. Az.
17 Sep 6.4 19:06:55 10° SSE 19:13:19 48° E 19:19:46 10° NNE visible
17 Sep 8.7 20:55:40 10° SW 20:59:16 15° W 21:02:54 10° WNW visible
18 Sep 7.6 18:15:10 10° ESE 18:18:26 14° E 18:21:43 10° NE visible
18 Sep 6.9 19:57:54 10° SSW 20:04:21 51° W 20:10:53 10° NNW visible
19 Sep 6.3 19:02:56 10° SSE 19:09:26 52° E 19:16:00 10° N visible
19 Sep 8.8 20:52:19 10° WSW 20:55:23 14° W 20:58:29 10° WNW visible
20 Sep 7.5 18:10:45 10° ESE 18:14:34 16° E 18:18:23 10° NE visible
20 Sep 7.1 19:54:06 10° SSW 20:00:28 46° W 20:06:56 10° NNW visible
21 Sep 6.2 18:58:58 10° SSE 19:05:34 58° E 19:12:12 10° N visible
21 Sep 8.9 20:49:07 10° WSW 20:51:30 12° W 20:53:55 10° WNW visible
22 Sep 7.3 19:50:19 10° SSW 19:56:36 42° W 20:02:57 10° NNW visible
23 Sep 6.2 18:55:01 10° SSE 19:01:41 63° E 19:08:24 10° N visible
23 Sep 9.1 20:46:19 10° WSW 20:47:38 11° W 20:48:57 10° W visible
24 Sep 7.5 19:46:34 10° SSW 19:52:43 38° W 19:58:57 10° NNW visible
25 Sep 6.2 18:51:05 10° SSE 18:57:49 69° E 19:04:35 10° N visible
26 Sep 7.7 19:42:49 10° SSW 19:48:51 35° W 19:54:57 10° NNW visible
